CW1575 Weather Reports


Display with metric or nautical units.
time (UTC)temp
F
wind
direction
speed
MPH
gust
MPH
rain 1hr
in
rain 24hr
in
rain mn
in
humidity
%
barometer
mb
20260503055005 53 0 0.0 0.0 0.00 0.00 0.00 30 1009.3
20260503054504 53 0 1.0 3.0 0.00 0.00 0.00 32 1009.3
20260503053504 53 0 1.0 1.0 0.00 0.00 0.00 29 1009.3
20260503053005 54 0 0.0 3.0 0.00 0.00 0.00 28 1009.3
20260503052504 54 0 0.0 3.0 0.00 0.00 0.00 28 1009.1
20260503052004 54 0 1.0 2.0 0.00 0.00 0.00 30 1009.2
20260503051504 55 0 0.0 1.0 0.00 0.00 0.00 32 1009.3
20260503050504 55 0 0.0 1.0 0.00 0.00 0.00 34 1009.3
20260503050005 56 0 0.0 0.0 0.00 0.00 0.00 35 1009.3
20260503045504 56 0 0.0 0.0 0.00 0.00 0.00 33 1009.3
20260503044504 57 0 0.0 0.0 0.00 0.00 0.00 31 1009.5
20260503044004 58 0 0.0 0.0 0.00 0.00 0.00 30 1009.5
20260503043504 58 0 0.0 0.0 0.00 0.00 0.00 29 1009.5
20260503042504 59 0 0.0 2.0 0.00 0.00 0.00 28 1009.6
20260503042005 59 0 0.0 1.0 0.00 0.00 0.00 25 1009.7
20260503041504 60 0 0.0 2.0 0.00 0.00 0.00 25 1009.7
20260503041004 60 0 0.0 1.0 0.00 0.00 0.00 25 1009.7
20260503040004 60 0 1.0 3.0 0.00 0.00 0.00 24 1009.6
20260503035504 60 0 1.0 3.0 0.00 0.00 0.00 24 1009.5
20260503035004 60 0 1.0 3.0 0.00 0.00 0.00 25 1009.5
20260503034005 61 0 1.0 3.0 0.00 0.00 0.00 24 1009.5
20260503033504 61 0 1.0 3.0 0.00 0.00 0.00 25 1009.5
20260503033005 61 0 0.0 2.0 0.00 0.00 0.00 24 1009.5
20260503032504 61 0 1.0 3.0 0.00 0.00 0.00 24 1009.6
20260503032005 61 0 1.0 5.0 0.00 0.00 0.00 24 1009.5
20260503030504 62 0 1.0 3.0 0.00 0.00 0.00 20 1009.5
20260503030004 62 0 0.0 2.0 0.00 0.00 0.00 19 1009.4
20260503025504 62 0 0.0 6.0 0.00 0.00 0.00 19 1009.3
20260503025005 62 0 0.0 3.0 0.00 0.00 0.00 18 1009.2
20260503024504 63 0 1.0 2.0 0.00 0.00 0.00 18 1009.3
20260503024004 63 0 1.0 2.0 0.00 0.00 0.00 18 1009.2
20260503023504 63 0 0.0 1.0 0.00 0.00 0.00 17 1009.1
20260503023005 64 0 0.0 0.0 0.00 0.00 0.00 17 1009.1
20260503022504 64 0 0.0 0.0 0.00 0.00 0.00 16 1009.0
20260503022005 65 0 0.0 0.0 0.00 0.00 0.00 15 1008.9
20260503021004 65 0 0.0 1.0 0.00 0.00 0.00 14 1008.9
20260503020504 66 0 0.0 0.0 0.00 0.00 0.00 14 1008.9
20260503020004 66 0 0.0 2.0 0.00 0.00 0.00 14 1008.8
20260503015005 67 0 0.0 1.0 0.00 0.00 0.00 13 1008.8
20260503014504 67 0 1.0 3.0 0.00 0.00 0.00 13 1008.8
20260503014004 67 0 1.0 5.0 0.00 0.00 0.00 12 1008.7
20260503013504 68 0 1.0 3.0 0.00 0.00 0.00 12 1008.7
20260503013005 68 0 0.0 1.0 0.00 0.00 0.00 12 1008.7
20260503012504 69 0 0.0 1.0 0.00 0.00 0.00 12 1008.7
20260503012004 69 0 0.0 3.0 0.00 0.00 0.00 11 1008.6
20260503011504 70 0 1.0 3.0 0.00 0.00 0.00 11 1008.6
20260503011004 70 0 1.0 5.0 0.00 0.00 0.00 11 1008.6
20260503010504 71 0 2.0 3.0 0.00 0.00 0.00 10 1008.5
20260503010005 71 0 0.0 6.0 0.00 0.00 0.00 11 1008.6
20260503005504 71 0 1.0 9.0 0.00 0.00 0.00 11 1008.5
20260503004505 71 0 1.0 3.0 0.00 0.00 0.00 11 1008.6
20260503004004 71 0 0.0 1.0 0.00 0.00 0.00 11 1008.7
20260503003504 71 0 2.0 9.0 0.00 0.00 0.00 10 1008.8
20260503002004 72 0 2.0 6.0 0.00 0.00 0.00 11 1009.0
20260503001504 72 0 1.0 5.0 0.00 0.00 0.00 10 1009.0
20260503001004 72 0 1.0 5.0 0.00 0.00 0.00 10 1009.0
20260503000504 72 0 3.0 8.0 0.00 0.00 0.00 11 1009.1
20260503000004 72 0 2.0 6.0 0.00 0.00 0.00 10 1009.1
20260502235504 72 0 3.0 5.0 0.00 0.00 0.00 10 1009.1
20260502235004 72 0 1.0 6.0 0.00 0.00 0.00 11 1009.1
20260502234504 72 0 2.0 3.0 0.00 0.00 0.00 11 1009.1
20260502234004 72 0 2.0 5.0 0.00 0.00 0.00 11 1009.1
20260502233504 72 0 1.0 3.0 0.00 0.00 0.00 11 1009.2
20260502232505 73 0 1.0 9.0 0.00 0.00 0.00 11 1009.4
20260502232005 73 0 2.0 6.0 0.00 0.00 0.00 11 1009.4
20260502231504 73 0 3.0 8.0 0.00 0.00 0.00 10 1009.5
20260502231005 73 0 1.0 3.0 0.00 0.00 0.00 11 1009.5
20260502230504 73 0 1.0 3.0 0.00 0.00 0.00 11 1009.5
20260502230004 73 0 3.0 5.0 0.00 0.00 0.00 11 1009.6
20260502225504 73 0 2.0 10.0 0.00 0.00 0.00 11 1009.6
20260502225004 73 0 4.0 9.0 0.00 0.00 0.00 11 1009.6
20260502224504 73 0 2.0 3.0 0.00 0.00 0.00 11 1009.6
20260502224004 73 0 2.0 3.0 0.00 0.00 0.00 11 1009.7
20260502223504 73 0 2.0 5.0 0.00 0.00 0.00 11 1009.7
20260502223004 73 49 3.0 5.0 0.00 0.00 0.00 11 1009.8
20260502222504 73 74 2.0 8.0 0.00 0.00 0.00 11 1009.9
20260502221504 73 77 2.0 7.0 0.00 0.00 0.00 11 1010.1
20260502220004 73 0 4.0 9.0 0.00 0.00 0.00 11 1010.2
20260502215504 73 49 2.0 8.0 0.00 0.00 0.00 11 1010.3
20260502214005 73 0 1.0 9.0 0.00 0.00 0.00 11 1010.8
20260502213504 73 0 3.0 6.0 0.00 0.00 0.00 11 1010.9
20260502213005 73 0 2.0 5.0 0.00 0.00 0.00 11 1011.0
20260502212504 73 0 2.0 6.0 0.00 0.00 0.00 10 1011.3
20260502211504 73 0 2.0 3.0 0.00 0.00 0.00 11 1011.4
20260502211004 73 0 2.0 6.0 0.00 0.00 0.00 11 1011.5
20260502210504 73 0 1.0 3.0 0.00 0.00 0.00 12 1011.7
20260502210004 73 0 1.0 5.0 0.00 0.00 0.00 12 1011.8
20260502205504 73 0 5.0 9.0 0.00 0.00 0.00 10 1011.8
20260502204504 73 0 3.0 6.0 0.00 0.00 0.00 12 1012.0
20260502204004 73 0 2.0 6.0 0.00 0.00 0.00 12 1012.1
20260502203004 73 0 1.0 6.0 0.00 0.00 0.00 15 1012.2
20260502202504 73 0 3.0 8.0 0.00 0.00 0.00 14 1012.3
20260502201504 72 0 1.0 5.0 0.00 0.00 0.00 14 1012.3
20260502201005 72 0 2.0 6.0 0.00 0.00 0.00 14 1012.4
20260502200504 72 0 1.0 3.0 0.00 0.00 0.00 14 1012.5
20260502200004 71 0 1.0 3.0 0.00 0.00 0.00 16 1012.6
20260502195504 71 0 1.0 3.0 0.00 0.00 0.00 15 1012.6
20260502195004 71 0 2.0 5.0 0.00 0.00 0.00 15 1012.8
20260502193503 71 0 3.0 6.0 0.00 0.00 0.00 16 1013.0
20260502193004 71 0 1.0 5.0 0.00 0.00 0.00 17 1013.2
20260502192504 71 0 3.0 8.0 0.00 0.00 0.00 18 1013.2
20260502192004 70 0 1.0 6.0 0.00 0.00 0.00 18 1013.4
20260502191504 70 0 2.0 6.0 0.00 0.00 0.00 17 1013.4
20260502190504 70 0 2.0 3.0 0.00 0.00 0.00 18 1013.5
20260502190004 70 0 3.0 6.0 0.00 0.00 0.00 17 1013.6
20260502185504 70 0 1.0 6.0 0.00 0.00 0.00 17 1013.7
20260502185003 70 0 2.0 3.0 0.00 0.00 0.00 18 1013.8
20260502184504 69 0 1.0 3.0 0.00 0.00 0.00 18 1013.8
20260502184004 70 0 1.0 3.0 0.00 0.00 0.00 17 1014.0
20260502183503 70 0 0.0 2.0 0.00 0.00 0.00 20 1014.1
20260502183004 70 0 2.0 3.0 0.00 0.00 0.00 19 1014.2
20260502182504 69 0 1.0 6.0 0.00 0.00 0.00 19 1014.3
20260502182003 69 0 1.0 3.0 0.00 0.00 0.00 19 1014.3
20260502180504 69 0 1.0 2.0 0.00 0.00 0.00 21 1014.6
20260502164004 67 0 2.0 3.0 0.00 0.00 0.00 22 1015.3
20260502163503 67 0 2.0 3.0 0.00 0.00 0.00 22 1015.5
20260502162504 66 0 1.0 3.0 0.00 0.00 0.00 22 1015.6
20260502162004 66 0 1.0 3.0 0.00 0.00 0.00 24 1015.6
20260502161504 65 0 1.0 3.0 0.00 0.00 0.00 23 1015.7
20260502161004 65 0 2.0 5.0 0.00 0.00 0.00 24 1015.8
20260502160504 64 0 2.0 3.0 0.00 0.00 0.00 25 1015.8
20260502152004 59 0 0.0 2.0 0.00 0.00 0.00 33 1016.4
20260502151504 58 0 2.0 3.0 0.00 0.00 0.00 32 1016.5
20260502151004 58 0 1.0 2.0 0.00 0.00 0.00 34 1016.5
20260502150503 57 0 1.0 3.0 0.00 0.00 0.00 35 1016.7
20260502130503 34 0 0.0 0.0 0.00 0.00 0.00 72 1016.8
20260502122504 35 0 0.0 0.0 0.00 0.00 0.00 68 1016.6
20260502122003 35 0 0.0 0.0 0.00 0.00 0.00 67 1016.4
20260502121504 35 0 0.0 0.0 0.00 0.00 0.00 67 1016.3
20260502120505 35 0 0.0 0.0 0.00 0.00 0.00 67 1016.3
20260502115505 35 0 0.0 0.0 0.00 0.00 0.00 67 1016.3
20260502114005 36 0 0.0 0.0 0.00 0.00 0.00 66 1016.2
20260502113505 36 0 0.0 0.0 0.00 0.00 0.00 66 1016.2
20260502113006 36 0 0.0 0.0 0.00 0.00 0.00 66 1016.2
20260502112505 36 0 0.0 0.0 0.00 0.00 0.00 66 1016.1
20260502112005 36 0 0.0 0.0 0.00 0.00 0.00 66 1016.1
20260502111506 36 0 0.0 1.0 0.00 0.00 0.00 66 1016.1
20260502111006 36 0 1.0 3.0 0.00 0.00 0.00 66 1016.0
20260502110506 36 0 0.0 1.0 0.00 0.00 0.00 65 1016.1
20260502110005 36 0 0.0 0.0 0.00 0.00 0.00 65 1016.1
20260502105505 36 0 0.0 1.0 0.00 0.00 0.00 65 1016.1
20260502105006 36 0 0.0 0.0 0.00 0.00 0.00 64 1016.1
20260502104506 37 0 0.0 0.0 0.00 0.00 0.00 64 1016.1
20260502104005 37 0 0.0 0.0 0.00 0.00 0.00 64 1016.1
20260502103505 37 0 0.0 0.0 0.00 0.00 0.00 63 1016.1
20260502103005 37 0 0.0 0.0 0.00 0.00 0.00 64 1016.1
20260502102506 37 0 0.0 0.0 0.00 0.00 0.00 63 1016.1
20260502102006 37 0 0.0 0.0 0.00 0.00 0.00 63 1016.1
20260502101506 37 0 0.0 0.0 0.00 0.00 0.00 63 1016.1
20260502101006 37 0 0.0 0.0 0.00 0.00 0.00 63 1015.9
20260502100506 37 0 0.0 0.0 0.00 0.00 0.00 63 1015.9
20260502091506 39 0 0.0 0.0 0.00 0.00 0.00 58 1015.6
20260502091006 40 0 0.0 0.0 0.00 0.00 0.00 58 1015.6
20260502090505 40 0 0.0 0.0 0.00 0.00 0.00 58 1015.7
20260502071506 44 0 0.0 0.0 0.00 0.00 0.00 47 1016.1
20260502071005 44 0 0.0 0.0 0.00 0.00 0.00 46 1016.1
20260502070505 44 0 0.0 0.0 0.00 0.00 0.00 46 1016.1
20260502070006 45 0 0.0 0.0 0.00 0.00 0.00 45 1016.1
20260502065005 45 0 0.0 0.0 0.00 0.00 0.00 45 1016.2
20260502064006 46 0 0.0 0.0 0.00 0.00 0.00 45 1016.2
20260502063506 46 0 0.0 0.0 0.00 0.00 0.00 44 1016.3
20260502063005 46 0 0.0 0.0 0.00 0.00 0.00 44 1016.3
20260502062505 46 0 0.0 0.0 0.00 0.00 0.00 44 1016.3
20260502062005 46 0 0.0 0.0 0.00 0.00 0.00 44 1016.4